Regional Weather Roundup
Issued by NWS Charleston, WV

Home | Current Version | Previous Version | Graphics & Text | Print | Product List | Glossary On
Versions: 1 2 3 4 5 6 7 8 9 10 11 12 13 14 15 16 17 18 19 20 21 22 23 24 25 26 27 28 29 30 31 32 33 34 35 36 37 38 39 40 41 42 43 44 45 46 47 48 49 50
000
ASUS41 KRLX 010110
RWRRLX
West Virginia Regional Weather Roundup
National Weather Service Charleston WV
900 PM EDT TUE MAR 31 2015

Note: "fair" indicates few or no clouds below 12,000 feet with no
significant weather and/or obstructions to visibility.

WVZ003-010200-
Northern Panhandle of West Virginia

CITY           SKY/WX    TMP DP  RH WIND       PRES   REMARKS
WHEELING         N/A     41  26  55 N10       29.92R
$$

WVZ009-010200-
Northwest West Virginia

CITY           SKY/WX    TMP DP  RH WIND       PRES   REMARKS
PARKERSBURG      N/A     46  33  60 NW8       29.95R
$$

WVZ006-010200-
Western West Virginia

CITY           SKY/WX    TMP DP  RH WIND       PRES   REMARKS
HUNTINGTON       N/A     52  38  58 N13       29.91R
$$

WVZ015-010200-
West Central West Virginia

CITY           SKY/WX    TMP DP  RH WIND       PRES   REMARKS
CHARLESTON       N/A     56  37  49 N20G26    29.89R
$$

WVZ022-031-010200-
North Central West Virginia

CITY           SKY/WX    TMP DP  RH WIND       PRES   REMARKS
CLARKSBURG       N/A     46  35  65 N15G28    29.88R
MORGANTOWN     CLOUDY    44  28  53 N16       29.92R
$$

WVZ025-035-042-045-010200-
Southern West Virginia

CITY           SKY/WX    TMP DP  RH WIND       PRES   REMARKS
BECKLEY          N/A     57  28  33 N13       29.84R
LOGAN            N/A     59  30  33 NW10G22   29.83R
BLUEFIELD      MOCLDY    63  31  30 NW17G26   29.84R
LEWISBURG        N/A     59  28  30 NW13G20   29.82R
$$

WVZ047-010200-
Northern Mountains of West Virginia

CITY           SKY/WX    TMP DP  RH WIND       PRES   REMARKS
ELKINS           N/A     51  32  48 NW16G24   29.85R
$$

WVZ052-010200-
Eastern Panhandle of West Virginia

CITY           SKY/WX    TMP DP  RH WIND       PRES   REMARKS
MARTINSBURG      N/A     46  38  73 N5        29.81R
PETERSBURG       N/A     54  33  44 NW9G16    29.82R
$$



USA.gov is the U.S. government's official web portal to all federal, state and local government web resources and services.